Location: Asheville, NC
(35.6000°N, 82.5500°W)
Time: 20:41:23
(UTC-04:00)

VELOX 1 - Visible Passes

Search period start: 17 July 2018 00:00
Search period end: 27 July 2018 00:00
Orbit: 630 x 644 km, 98.2° (Epoch: 17 July)

Date Brightness Start Highest point End Pass type
(mag) Time Alt. Az. Time Alt. Az. Time Alt. Az.
17 Jul ? 02:02:40 29° N 02:02:40 29° N 02:04:52 10° N visible
18 Jul ? 00:48:03 11° NE 00:48:03 11° NE 00:48:47 10° NE visible
18 Jul ? 02:25:35 23° NNW 02:25:35 23° NNW 02:27:22 10° NNW visible
19 Jul ? 01:10:58 18° NE 01:10:58 18° NE 01:12:46 10° NNE visible
19 Jul ? 02:48:29 16° NW 02:48:29 16° NW 02:49:36 10° NW visible
20 Jul ? 01:33:53 24° NNE 01:33:53 24° NNE 01:35:58 10° N visible
21 Jul ? 01:56:47 26° N 01:56:47 26° N 01:58:49 10° N visible
22 Jul ? 02:19:42 23° NNW 02:19:42 23° NNW 02:21:25 10° NNW visible
23 Jul ? 01:05:05 15° NE 01:05:05 15° NE 01:06:28 10° NNE visible
23 Jul ? 02:42:37 17° NW 02:42:37 17° NW 02:43:44 10° NNW visible
24 Jul ? 01:28:00 21° NNE 01:28:00 21° NNE 01:29:48 10° N visible
24 Jul ? 03:05:32 10° NW 03:05:32 10° NW 03:05:39 10° NW visible
25 Jul ? 01:50:55 24° N 01:50:55 24° N 01:52:44 10° N visible
26 Jul ? 02:13:50 22° NNW 02:13:50 22° NNW 02:15:24 10° NNW visible
